Location: Newark
(11.6000°N, 43.1667°E)
Time: 02:21:53
(UTC+00:00)

LightSail 2 - Pass Details

Date: 20 September 2019
Orbit: 707 x 722 km, 24.0° (Epoch: 22 October)

Event Time Altitude Azimuth Distance (km) Brightness Sun altitude
Exits shadow 02:18:14 11° 288° (WNW) 2,088 7.0 -10.2°
Maximum altitude 02:22:24 29° 347° (NNW) 1,276 6.4 -9.2°
Drops below altitude 10° 02:26:49 10° 47° (NE) 2,160 8.4 -8.1°
Sets 02:29:31 0° 58° (ENE) 3,080 9.6 -7.5°
